Year,Month,Day,Hour,Minute,Value (Times are PST for temperature in C)
2011,09,27,00,00,10.90
2011,09,27,00,01,11.00
2011,09,27,00,02,11.10
2011,09,27,00,03,11.20
2011,09,27,00,04,11.30
2011,09,27,00,05,11.30
2011,09,27,00,06,11.40
2011,09,27,00,07,11.40
2011,09,27,00,08,11.40
2011,09,27,00,10,11.30
2011,09,27,00,11,11.20
2011,09,27,00,12,11.10
2011,09,27,00,13,11.00
2011,09,27,00,14,11.00
2011,09,27,00,15,11.00
2011,09,27,00,16,11.00
2011,09,27,00,17,11.00
2011,09,27,00,18,11.00
2011,09,27,00,19,10.90
2011,09,27,00,20,10.90
2011,09,27,00,21,10.90
2011,09,27,00,22,10.90
2011,09,27,00,23,10.90
2011,09,27,00,24,10.90
2011,09,27,00,25,10.90
2011,09,27,00,26,10.90
2011,09,27,00,27,10.90
2011,09,27,00,28,10.90
2011,09,27,00,29,10.90
2011,09,27,00,30,10.80
2011,09,27,00,31,10.80
2011,09,27,00,32,10.80
2011,09,27,00,33,10.70
2011,09,27,00,34,10.70
2011,09,27,00,35,10.70
2011,09,27,00,36,10.60
2011,09,27,00,37,10.60
2011,09,27,00,38,10.50
2011,09,27,00,39,10.40
2011,09,27,00,40,10.40
2011,09,27,00,41,10.30
2011,09,27,00,42,10.30
2011,09,27,00,43,10.30
2011,09,27,00,44,10.20
2011,09,27,00,45,10.20
2011,09,27,00,46,10.10
2011,09,27,00,47,10.00
2011,09,27,00,48,10.00
2011,09,27,00,49,9.90
2011,09,27,00,50,9.90
2011,09,27,00,51,9.90
2011,09,27,00,52,9.90
2011,09,27,00,53,9.80
2011,09,27,00,54,9.80
2011,09,27,00,55,9.80
2011,09,27,00,56,9.80
2011,09,27,00,57,9.80
2011,09,27,00,58,9.80
2011,09,27,00,59,9.80
2011,09,27,01,00,9.80
2011,09,27,01,01,9.70
2011,09,27,01,02,9.70
2011,09,27,01,03,9.80
2011,09,27,01,04,9.90
2011,09,27,01,05,10.00
2011,09,27,01,06,10.10
2011,09,27,01,07,10.20
2011,09,27,01,08,10.30
2011,09,27,01,09,10.40
2011,09,27,01,10,10.50
2011,09,27,01,11,10.60
2011,09,27,01,12,10.60
2011,09,27,01,13,10.60
2011,09,27,01,14,10.60
2011,09,27,01,15,10.50
2011,09,27,01,16,10.50
2011,09,27,01,17,10.60
2011,09,27,01,18,10.70
2011,09,27,01,19,10.80
2011,09,27,01,20,10.80
2011,09,27,01,21,10.80
2011,09,27,01,22,10.80
2011,09,27,01,23,10.80
2011,09,27,01,24,10.90
2011,09,27,01,25,10.90
2011,09,27,01,26,10.90
2011,09,27,01,27,10.90
2011,09,27,01,28,10.90
2011,09,27,01,29,10.80
2011,09,27,01,30,10.80
2011,09,27,01,31,10.80
2011,09,27,01,32,10.70
2011,09,27,01,33,10.70
2011,09,27,01,34,10.60
2011,09,27,01,35,10.60
2011,09,27,01,36,10.50
2011,09,27,01,37,10.40
2011,09,27,01,38,10.30
2011,09,27,01,39,10.20
2011,09,27,01,40,10.00
2011,09,27,01,41,9.90
2011,09,27,01,42,9.80
2011,09,27,01,43,9.70
2011,09,27,01,44,9.70
2011,09,27,01,45,9.60
2011,09,27,01,46,9.50
2011,09,27,01,47,9.40
2011,09,27,01,48,9.40
2011,09,27,01,49,9.30
2011,09,27,01,50,9.40
2011,09,27,01,51,9.80
2011,09,27,01,52,10.00
2011,09,27,01,53,10.10
2011,09,27,01,54,10.00
2011,09,27,01,55,10.00
2011,09,27,01,56,10.00
2011,09,27,01,57,10.00
2011,09,27,01,58,9.90
2011,09,27,01,59,9.90
2011,09,27,02,00,9.90
2011,09,27,02,01,9.90
2011,09,27,02,02,10.00
2011,09,27,02,03,10.10
2011,09,27,02,04,10.20
2011,09,27,02,05,10.40
2011,09,27,02,06,10.50
2011,09,27,02,07,10.50
2011,09,27,02,08,10.60
2011,09,27,02,09,10.50
2011,09,27,02,10,10.50
2011,09,27,02,11,10.50
2011,09,27,02,12,10.50
2011,09,27,02,13,10.40
2011,09,27,02,14,10.40
2011,09,27,02,15,10.40
2011,09,27,02,16,10.40
2011,09,27,02,17,10.40
2011,09,27,02,18,10.40
2011,09,27,02,19,10.30
2011,09,27,02,20,10.30
2011,09,27,02,21,10.20
2011,09,27,02,22,10.20
2011,09,27,02,23,10.20
2011,09,27,02,24,10.30
2011,09,27,02,25,10.50
2011,09,27,02,26,10.70
2011,09,27,02,27,10.80
2011,09,27,02,28,10.80
2011,09,27,02,29,10.80
2011,09,27,02,30,10.80
2011,09,27,02,31,10.80
2011,09,27,02,32,10.80
2011,09,27,02,33,10.80
2011,09,27,02,34,10.90
2011,09,27,02,35,10.90
2011,09,27,02,36,10.90
2011,09,27,02,37,10.90
2011,09,27,02,38,10.80
2011,09,27,02,39,10.80
2011,09,27,02,40,10.70
2011,09,27,02,41,10.70
2011,09,27,02,42,10.70
2011,09,27,02,43,10.70
2011,09,27,02,44,10.70
2011,09,27,02,45,10.60
2011,09,27,02,46,10.60
2011,09,27,02,47,10.60
2011,09,27,02,48,10.50
2011,09,27,02,49,10.40
2011,09,27,02,50,10.40
2011,09,27,02,51,10.40
2011,09,27,02,52,10.30
2011,09,27,02,53,10.30
2011,09,27,02,54,10.40
2011,09,27,02,55,10.40
2011,09,27,02,56,10.40
2011,09,27,02,57,10.40
2011,09,27,02,58,10.40
2011,09,27,02,59,10.40
2011,09,27,03,00,10.40
2011,09,27,03,01,10.40
2011,09,27,03,02,10.30
2011,09,27,03,03,10.30
2011,09,27,03,06,10.40
2011,09,27,03,07,10.40
2011,09,27,03,08,10.40
2011,09,27,03,09,10.30
2011,09,27,03,10,10.20
2011,09,27,03,11,10.20
2011,09,27,03,12,10.20
2011,09,27,03,13,10.20
2011,09,27,03,14,10.10
2011,09,27,03,15,10.00
2011,09,27,03,16,10.00
2011,09,27,03,17,9.90
2011,09,27,03,18,9.90
2011,09,27,03,19,9.80
2011,09,27,03,20,9.80
2011,09,27,03,21,9.80
2011,09,27,03,22,9.80
2011,09,27,03,23,9.80
2011,09,27,03,24,9.80
2011,09,27,03,25,9.70
2011,09,27,03,26,9.70
2011,09,27,03,27,9.70
2011,09,27,03,28,9.70
2011,09,27,03,29,9.70
2011,09,27,03,30,9.70
2011,09,27,03,31,9.70
2011,09,27,03,32,9.70
2011,09,27,03,33,9.70
2011,09,27,03,34,9.70
2011,09,27,03,35,9.70
2011,09,27,03,36,9.80
2011,09,27,03,37,10.00
2011,09,27,03,38,10.20
2011,09,27,03,39,10.30
2011,09,27,03,40,10.30
2011,09,27,03,41,10.20
2011,09,27,03,42,10.20
2011,09,27,03,43,10.10
2011,09,27,03,44,10.10
2011,09,27,03,45,10.10
2011,09,27,03,46,10.10
2011,09,27,03,47,10.00
2011,09,27,03,48,10.00
2011,09,27,03,49,10.00
2011,09,27,03,50,10.00
2011,09,27,03,51,10.00
2011,09,27,03,52,10.00
2011,09,27,03,53,9.90
2011,09,27,03,54,9.80
2011,09,27,03,55,9.80
2011,09,27,03,56,9.80
2011,09,27,03,57,9.70
2011,09,27,03,58,9.60
2011,09,27,03,59,9.60
2011,09,27,04,00,9.60
2011,09,27,04,01,9.60
2011,09,27,04,02,9.70
2011,09,27,04,03,9.70
2011,09,27,04,04,9.70
2011,09,27,04,05,9.60
2011,09,27,04,06,9.60
2011,09,27,04,07,9.50
2011,09,27,04,08,9.50
2011,09,27,04,09,9.50
2011,09,27,04,10,9.50
2011,09,27,04,11,9.40
2011,09,27,04,12,9.40
2011,09,27,04,13,9.40
2011,09,27,04,14,9.30
2011,09,27,04,15,9.30
2011,09,27,04,16,9.30
2011,09,27,04,17,9.20
2011,09,27,04,18,9.20
2011,09,27,04,19,9.20
2011,09,27,04,20,9.20
2011,09,27,04,21,9.10
2011,09,27,04,22,9.00
2011,09,27,04,23,8.90
2011,09,27,04,24,8.90
2011,09,27,04,25,8.80
2011,09,27,04,26,8.80
2011,09,27,04,27,8.70
2011,09,27,04,28,8.70
2011,09,27,04,29,8.80
2011,09,27,04,30,8.80
2011,09,27,04,31,8.80
2011,09,27,04,32,8.80
2011,09,27,04,33,8.80
2011,09,27,04,34,8.80
2011,09,27,04,35,8.80
2011,09,27,04,36,8.80
2011,09,27,04,37,8.80
2011,09,27,04,38,8.80
2011,09,27,04,39,8.80
2011,09,27,04,40,8.70
2011,09,27,04,41,8.70
2011,09,27,04,42,8.70
2011,09,27,04,43,8.70
2011,09,27,04,44,8.70
2011,09,27,04,45,8.60
2011,09,27,04,46,8.60
2011,09,27,04,47,8.60
2011,09,27,04,48,8.50
2011,09,27,04,49,8.50
2011,09,27,04,50,8.40
2011,09,27,04,51,8.40
2011,09,27,04,52,8.30
2011,09,27,04,53,8.30
2011,09,27,04,54,8.30
2011,09,27,04,55,8.30
2011,09,27,04,56,8.20
2011,09,27,04,57,8.20
2011,09,27,04,58,8.20
2011,09,27,04,59,8.20
2011,09,27,05,00,8.20
2011,09,27,05,01,8.20
2011,09,27,05,02,8.20
2011,09,27,05,03,8.20
2011,09,27,05,04,8.10
2011,09,27,05,05,8.10
2011,09,27,05,06,8.10
2011,09,27,05,07,8.10
2011,09,27,05,08,8.20
2011,09,27,05,09,8.30
2011,09,27,05,10,8.40
2011,09,27,05,11,8.40
2011,09,27,05,12,8.60
2011,09,27,05,13,8.60
2011,09,27,05,14,8.80
2011,09,27,05,15,9.00
2011,09,27,05,16,9.20
2011,09,27,05,17,9.40
2011,09,27,05,18,9.60
2011,09,27,05,19,9.70
2011,09,27,05,20,9.80
2011,09,27,05,21,10.00
2011,09,27,05,22,10.10
2011,09,27,05,23,10.20
2011,09,27,05,24,10.30
2011,09,27,05,25,10.30
2011,09,27,05,26,10.30
2011,09,27,05,27,10.30
2011,09,27,05,28,10.40
2011,09,27,05,29,10.50
2011,09,27,05,30,10.60
2011,09,27,05,31,10.80
2011,09,27,05,32,10.90
2011,09,27,05,33,11.00
2011,09,27,05,34,11.00
2011,09,27,05,35,11.00
2011,09,27,05,36,11.10
2011,09,27,05,37,11.10
2011,09,27,05,38,11.00
2011,09,27,05,39,11.00
2011,09,27,05,40,11.10
2011,09,27,05,41,11.10
2011,09,27,05,42,11.10
2011,09,27,05,43,11.10
2011,09,27,05,44,11.10
2011,09,27,05,45,11.10
2011,09,27,05,46,11.10
2011,09,27,05,47,11.10
2011,09,27,05,48,11.00
2011,09,27,05,49,11.00
2011,09,27,05,50,10.80
2011,09,27,05,51,10.70
2011,09,27,05,52,10.60
2011,09,27,05,53,10.50
2011,09,27,05,54,10.40
2011,09,27,05,55,10.30
2011,09,27,05,56,10.20
2011,09,27,05,57,10.00
2011,09,27,05,58,9.90
2011,09,27,05,59,9.90
2011,09,27,06,01,10.10
2011,09,27,06,02,10.10
2011,09,27,06,03,10.20
2011,09,27,06,04,10.20
2011,09,27,06,05,10.30
2011,09,27,06,06,10.30
2011,09,27,06,07,10.30
2011,09,27,06,08,10.30
2011,09,27,06,09,10.30
2011,09,27,06,10,10.20
2011,09,27,06,11,10.10
2011,09,27,06,12,10.10
2011,09,27,06,13,10.00
2011,09,27,06,14,10.00
2011,09,27,06,15,9.90
2011,09,27,06,16,9.90
2011,09,27,06,17,9.90
2011,09,27,06,18,9.90
2011,09,27,06,19,9.90
2011,09,27,06,20,9.90
2011,09,27,06,21,9.80
2011,09,27,06,22,9.90
2011,09,27,06,23,9.90
2011,09,27,06,24,9.90
2011,09,27,06,25,9.80
2011,09,27,06,26,9.80
2011,09,27,06,27,9.80
2011,09,27,06,28,9.70
2011,09,27,06,29,9.70
2011,09,27,06,30,9.60
2011,09,27,06,31,9.60
2011,09,27,06,32,9.60
2011,09,27,06,33,9.60
2011,09,27,06,34,9.60
2011,09,27,06,35,9.60
2011,09,27,06,36,9.60
2011,09,27,06,37,9.60
2011,09,27,06,38,9.50
2011,09,27,06,39,9.50
2011,09,27,06,40,9.50
2011,09,27,06,41,9.60
2011,09,27,06,42,9.70
2011,09,27,06,43,9.80
2011,09,27,06,44,9.80
2011,09,27,06,45,9.80
2011,09,27,06,46,9.80
2011,09,27,06,47,9.70
2011,09,27,06,48,9.50
2011,09,27,06,49,9.40
2011,09,27,06,50,9.40
2011,09,27,06,51,9.40
2011,09,27,06,52,9.40
2011,09,27,06,53,9.30
2011,09,27,06,54,9.30
2011,09,27,06,55,9.30
2011,09,27,06,56,9.30
2011,09,27,06,57,9.30
2011,09,27,06,58,9.40
2011,09,27,06,59,9.50
2011,09,27,07,00,9.60
2011,09,27,07,01,9.60
2011,09,27,07,02,9.60
2011,09,27,07,03,9.70
2011,09,27,07,04,9.70
2011,09,27,07,05,9.70
2011,09,27,07,06,9.70
2011,09,27,07,07,9.70
2011,09,27,07,08,9.70
2011,09,27,07,09,9.60
2011,09,27,07,10,9.50
2011,09,27,07,11,9.40
2011,09,27,07,12,9.30
2011,09,27,07,13,9.20
2011,09,27,07,14,9.10
2011,09,27,07,15,9.00
2011,09,27,07,16,8.90
2011,09,27,07,17,8.80
2011,09,27,07,18,8.70
2011,09,27,07,19,8.60
2011,09,27,07,20,8.60
2011,09,27,07,21,8.50
2011,09,27,07,22,8.50
2011,09,27,07,23,8.50
2011,09,27,07,24,8.40
2011,09,27,07,25,8.40
2011,09,27,07,26,8.40
2011,09,27,07,27,8.30
2011,09,27,07,28,8.30
2011,09,27,07,29,8.30
2011,09,27,07,30,8.30
2011,09,27,07,31,8.30
2011,09,27,07,32,8.30
2011,09,27,07,33,8.50
2011,09,27,07,34,8.70
2011,09,27,07,35,8.70
2011,09,27,07,36,8.80
2011,09,27,07,37,8.80
2011,09,27,07,38,8.80
2011,09,27,07,39,8.90
2011,09,27,07,40,8.80
2011,09,27,07,41,8.80
2011,09,27,07,42,8.90
2011,09,27,07,43,8.90
2011,09,27,07,44,8.90
2011,09,27,07,45,8.90
2011,09,27,07,46,8.90
2011,09,27,07,47,8.90
2011,09,27,07,48,8.90
2011,09,27,07,49,9.00
2011,09,27,07,50,9.00
2011,09,27,07,51,9.10
2011,09,27,07,52,9.10
2011,09,27,07,53,9.10
2011,09,27,07,54,9.20
2011,09,27,07,55,9.20
2011,09,27,07,56,9.30
2011,09,27,07,57,9.30
2011,09,27,07,58,9.30
2011,09,27,08,00,9.30
2011,09,27,08,01,9.40
2011,09,27,08,02,9.60
2011,09,27,08,03,9.70
2011,09,27,08,04,9.90
2011,09,27,08,07,10.40
2011,09,27,08,08,10.40
2011,09,27,08,09,10.50
2011,09,27,08,10,10.60
2011,09,27,08,11,10.60
2011,09,27,08,12,10.60
2011,09,27,08,13,10.60
2011,09,27,08,14,10.60
2011,09,27,08,15,10.50
2011,09,27,08,16,10.50
2011,09,27,08,17,10.50
2011,09,27,08,19,10.80
2011,09,27,08,20,10.90
2011,09,27,08,21,11.00
2011,09,27,08,22,11.20
2011,09,27,08,23,11.40
2011,09,27,08,24,11.50
2011,09,27,08,25,11.60
2011,09,27,08,26,11.60
2011,09,27,08,27,11.70
2011,09,27,08,28,11.70
2011,09,27,08,29,11.80
2011,09,27,08,30,11.90
2011,09,27,08,31,11.90
2011,09,27,08,32,11.90
2011,09,27,08,33,11.90
2011,09,27,08,34,11.90
2011,09,27,08,35,11.90
2011,09,27,08,36,11.90
2011,09,27,08,37,11.90
2011,09,27,08,38,11.90
2011,09,27,08,39,11.90
2011,09,27,08,40,12.00
2011,09,27,08,41,12.10
2011,09,27,08,42,12.20
2011,09,27,08,43,12.10
2011,09,27,08,44,12.10
2011,09,27,08,47,11.90
2011,09,27,08,48,12.00
2011,09,27,08,49,12.00
2011,09,27,08,50,12.00
2011,09,27,08,51,12.00
2011,09,27,08,52,12.00
2011,09,27,08,53,12.00
2011,09,27,08,54,11.90
2011,09,27,08,55,11.90
2011,09,27,08,56,11.90
2011,09,27,08,57,11.80
2011,09,27,08,58,11.80
2011,09,27,08,59,11.80
2011,09,27,09,00,11.80
2011,09,27,09,01,11.80
2011,09,27,09,02,11.70
2011,09,27,09,03,11.70
2011,09,27,09,04,11.70
2011,09,27,09,05,11.60
2011,09,27,09,06,11.60
2011,09,27,09,07,11.50
2011,09,27,09,08,11.50
2011,09,27,09,09,11.50
2011,09,27,09,10,11.50
2011,09,27,09,11,11.50
2011,09,27,09,12,11.60
2011,09,27,09,13,11.60
2011,09,27,09,14,11.70
2011,09,27,09,15,11.70
2011,09,27,09,16,11.80
2011,09,27,09,17,11.80
2011,09,27,09,18,11.90
2011,09,27,09,19,11.90
2011,09,27,09,20,12.00
2011,09,27,09,21,12.10
2011,09,27,09,22,12.20
2011,09,27,09,23,12.30
2011,09,27,09,24,12.40
2011,09,27,09,25,12.40
2011,09,27,09,26,12.40
2011,09,27,09,27,12.40
2011,09,27,09,28,12.40
2011,09,27,09,29,12.40
2011,09,27,09,30,12.40
2011,09,27,09,31,12.40
2011,09,27,09,32,12.40
2011,09,27,09,33,12.30
2011,09,27,09,34,12.30
2011,09,27,09,35,12.30
2011,09,27,09,36,12.30
2011,09,27,09,37,12.30
2011,09,27,09,38,12.30
2011,09,27,09,39,12.30
2011,09,27,09,40,12.30
2011,09,27,09,41,12.30
2011,09,27,09,42,12.30
2011,09,27,09,43,12.30
2011,09,27,09,44,12.30
2011,09,27,09,45,12.30
2011,09,27,09,46,12.30
2011,09,27,09,47,12.30
2011,09,27,09,48,12.30
2011,09,27,09,49,12.30
2011,09,27,09,50,12.30
2011,09,27,09,51,12.30
2011,09,27,09,52,12.30
2011,09,27,09,53,12.30
2011,09,27,09,54,12.30
2011,09,27,09,55,12.30
2011,09,27,09,56,12.30
2011,09,27,09,57,12.30
2011,09,27,09,58,12.30
2011,09,27,09,59,12.30
2011,09,27,10,00,12.30
2011,09,27,10,01,12.30
2011,09,27,10,02,12.30
2011,09,27,10,03,12.30
2011,09,27,10,04,12.40
2011,09,27,10,05,12.40
2011,09,27,10,06,12.40
2011,09,27,10,07,12.40
2011,09,27,10,08,12.40
2011,09,27,10,09,12.40
2011,09,27,10,10,12.50
2011,09,27,10,11,12.50
2011,09,27,10,12,12.50
2011,09,27,10,13,12.60
2011,09,27,10,14,12.60
2011,09,27,10,15,12.60
2011,09,27,10,16,12.70
2011,09,27,10,17,12.70
2011,09,27,10,18,12.80
2011,09,27,10,19,12.80
2011,09,27,10,20,12.90
2011,09,27,10,21,12.90
2011,09,27,10,22,12.90
2011,09,27,10,23,13.00
2011,09,27,10,24,13.00
2011,09,27,10,25,13.00
2011,09,27,10,26,13.00
2011,09,27,10,27,12.90
2011,09,27,10,28,12.90
2011,09,27,10,29,12.90
2011,09,27,10,30,12.90
2011,09,27,10,31,12.90
2011,09,27,10,32,13.00
2011,09,27,10,33,13.00
2011,09,27,10,34,13.00
2011,09,27,10,35,13.00
2011,09,27,10,36,13.10
2011,09,27,10,37,13.10
2011,09,27,10,38,13.10
2011,09,27,10,39,13.10
2011,09,27,10,40,13.10
2011,09,27,10,41,13.10
2011,09,27,10,42,13.10
2011,09,27,10,43,13.10
2011,09,27,10,44,13.20
2011,09,27,10,45,13.20
2011,09,27,10,46,13.20
2011,09,27,10,47,13.20
2011,09,27,10,48,13.20
2011,09,27,10,49,13.30
2011,09,27,10,50,13.30
2011,09,27,10,51,13.30
2011,09,27,10,52,13.30
2011,09,27,10,53,13.40
2011,09,27,10,54,13.40
2011,09,27,10,55,13.40
2011,09,27,10,56,13.30
2011,09,27,10,57,13.30
2011,09,27,10,58,13.20
2011,09,27,10,59,13.20
2011,09,27,11,00,13.20
2011,09,27,11,01,13.20
2011,09,27,11,02,13.20
2011,09,27,11,03,13.20
2011,09,27,11,04,13.30
2011,09,27,11,05,13.40
2011,09,27,11,06,13.40
2011,09,27,11,07,13.50
2011,09,27,11,08,13.60
2011,09,27,11,09,13.60
2011,09,27,11,10,13.70
2011,09,27,11,11,13.70
2011,09,27,11,12,13.70
2011,09,27,11,13,13.70
2011,09,27,11,14,13.70
2011,09,27,11,15,13.70
2011,09,27,11,16,13.70
2011,09,27,11,17,13.70
2011,09,27,11,18,13.70
2011,09,27,11,19,13.70
2011,09,27,11,20,13.70
2011,09,27,11,21,13.70
2011,09,27,11,22,13.70
2011,09,27,11,23,13.70
2011,09,27,11,24,13.70
2011,09,27,11,25,13.70
2011,09,27,11,26,13.70
2011,09,27,11,27,13.70
2011,09,27,11,28,13.70
2011,09,27,11,29,13.70
2011,09,27,11,30,13.80
2011,09,27,11,31,13.80
2011,09,27,11,32,13.80
2011,09,27,11,33,13.90
2011,09,27,11,34,13.90
2011,09,27,11,35,13.90
2011,09,27,11,36,13.90
2011,09,27,11,37,13.90
2011,09,27,11,38,13.90
2011,09,27,11,39,13.90
2011,09,27,11,40,13.80
2011,09,27,11,41,13.80
2011,09,27,11,42,13.80
2011,09,27,11,43,13.80
2011,09,27,11,44,13.80
2011,09,27,11,45,13.80
2011,09,27,11,46,13.80
2011,09,27,11,47,13.90
2011,09,27,11,48,13.90
2011,09,27,11,49,13.90
2011,09,27,11,50,13.90
2011,09,27,11,51,14.00
2011,09,27,11,52,14.00
2011,09,27,11,53,14.00
2011,09,27,11,54,14.10
2011,09,27,11,55,14.10
2011,09,27,11,56,14.10
2011,09,27,11,57,14.10
2011,09,27,11,58,14.10
2011,09,27,11,59,14.20
2011,09,27,12,00,14.20
2011,09,27,12,01,14.20
2011,09,27,12,02,14.20
2011,09,27,12,03,14.20
2011,09,27,12,04,14.20
2011,09,27,12,05,14.20
2011,09,27,12,06,14.30
2011,09,27,12,07,14.30
2011,09,27,12,08,14.30
2011,09,27,12,09,14.30
2011,09,27,12,10,14.30
2011,09,27,12,11,14.30
2011,09,27,12,12,14.30
2011,09,27,12,13,14.40
2011,09,27,12,14,14.40
2011,09,27,12,15,14.40
2011,09,27,12,16,14.40
2011,09,27,12,17,14.40
2011,09,27,12,18,14.40
2011,09,27,12,19,14.50
2011,09,27,12,20,14.50
2011,09,27,12,21,14.50
2011,09,27,12,22,14.60
2011,09,27,12,23,14.60
2011,09,27,12,24,14.70
2011,09,27,12,25,14.70
2011,09,27,12,26,14.80
2011,09,27,12,27,14.80
2011,09,27,12,28,14.80
2011,09,27,12,29,14.80
2011,09,27,12,30,14.80
2011,09,27,12,31,14.80
2011,09,27,12,32,14.80
2011,09,27,12,33,14.80
2011,09,27,12,34,14.80
2011,09,27,12,35,14.80
2011,09,27,12,36,14.80
2011,09,27,12,37,14.80
2011,09,27,12,38,14.80
2011,09,27,12,39,14.80
2011,09,27,12,40,14.90
2011,09,27,12,41,14.90
2011,09,27,12,42,14.90
2011,09,27,12,43,14.90
2011,09,27,12,44,14.90
2011,09,27,12,45,14.90
2011,09,27,12,46,15.00
2011,09,27,12,47,15.00
2011,09,27,12,48,14.90
2011,09,27,12,49,14.90
2011,09,27,12,50,14.90
2011,09,27,12,51,14.80
2011,09,27,12,52,14.80
2011,09,27,12,53,14.80
2011,09,27,12,54,14.80
2011,09,27,12,55,14.70
2011,09,27,12,56,14.70
2011,09,27,12,57,14.70
2011,09,27,12,58,14.70
2011,09,27,12,59,14.70
2011,09,27,13,00,14.70
2011,09,27,13,01,14.70
2011,09,27,13,02,14.70
2011,09,27,13,03,14.80
2011,09,27,13,04,14.80
2011,09,27,13,05,14.80
2011,09,27,13,06,14.80
2011,09,27,13,07,14.90
2011,09,27,13,09,15.00
2011,09,27,13,10,15.00
2011,09,27,13,11,15.00
2011,09,27,13,12,15.10
2011,09,27,13,13,15.30
2011,09,27,13,14,15.40
2011,09,27,13,15,15.50
2011,09,27,13,16,15.60
2011,09,27,13,17,15.70
2011,09,27,13,18,15.80
2011,09,27,13,19,15.80
2011,09,27,13,20,15.90
2011,09,27,13,21,16.00
2011,09,27,13,22,16.10
2011,09,27,13,23,16.20
2011,09,27,13,24,16.30
2011,09,27,13,25,16.30
2011,09,27,13,26,16.40
2011,09,27,13,27,16.50
2011,09,27,13,28,16.50
2011,09,27,13,29,16.50
2011,09,27,13,30,16.60
2011,09,27,13,31,16.70
2011,09,27,13,32,16.70
2011,09,27,13,33,16.70
2011,09,27,13,34,16.60
2011,09,27,13,35,16.70
2011,09,27,13,36,16.70
2011,09,27,13,37,16.80
2011,09,27,13,38,16.80
2011,09,27,13,39,16.90
2011,09,27,13,40,16.90
2011,09,27,13,41,17.00
2011,09,27,13,42,17.00
2011,09,27,13,43,17.10
2011,09,27,13,44,17.00
2011,09,27,13,47,16.90
2011,09,27,13,48,16.90
2011,09,27,13,49,17.00
2011,09,27,13,50,17.10
2011,09,27,13,51,17.20
2011,09,27,13,52,17.30
2011,09,27,13,53,17.30
2011,09,27,13,54,17.40
2011,09,27,13,55,17.30
2011,09,27,13,56,17.20
2011,09,27,13,57,17.10
2011,09,27,13,58,17.10
2011,09,27,13,59,17.00
2011,09,27,14,00,17.00
2011,09,27,14,01,17.00
2011,09,27,14,02,16.90
2011,09,27,14,03,16.90
2011,09,27,14,06,16.90
2011,09,27,14,07,17.00
2011,09,27,14,08,17.10
2011,09,27,14,09,17.10
2011,09,27,14,10,17.10
2011,09,27,14,11,17.10
2011,09,27,14,12,17.10
2011,09,27,14,13,17.10
2011,09,27,14,14,17.10
2011,09,27,14,15,17.10
2011,09,27,14,16,17.10
2011,09,27,14,17,17.10
2011,09,27,14,18,17.10
2011,09,27,14,19,17.10
2011,09,27,14,21,17.20
2011,09,27,14,22,17.20
2011,09,27,14,23,17.20
2011,09,27,14,24,17.20
2011,09,27,14,25,17.30
2011,09,27,14,26,17.40
2011,09,27,14,27,17.40
2011,09,27,14,28,17.30
2011,09,27,14,29,17.30
2011,09,27,14,30,17.30
2011,09,27,14,31,17.40
2011,09,27,14,32,17.50
2011,09,27,14,33,17.60
2011,09,27,14,34,17.50
2011,09,27,14,35,17.50
2011,09,27,14,36,17.50
2011,09,27,14,37,17.50
2011,09,27,14,38,17.40
2011,09,27,14,39,17.40
2011,09,27,14,40,17.40
2011,09,27,14,41,17.30
2011,09,27,14,42,17.30
2011,09,27,14,43,17.30
2011,09,27,14,44,17.40
2011,09,27,14,45,17.40
2011,09,27,14,46,17.50
2011,09,27,14,47,17.50
2011,09,27,14,48,17.50
2011,09,27,14,49,17.60
2011,09,27,14,50,17.60
2011,09,27,14,51,17.60
2011,09,27,14,52,17.70
2011,09,27,14,53,17.70
2011,09,27,14,54,17.70
2011,09,27,14,55,17.50
2011,09,27,14,56,17.40
2011,09,27,14,57,17.30
2011,09,27,14,58,17.40
2011,09,27,14,59,17.40
2011,09,27,15,00,17.40
2011,09,27,15,01,17.40
2011,09,27,15,02,17.50
2011,09,27,15,03,17.60
2011,09,27,15,04,17.70
2011,09,27,15,05,17.70
2011,09,27,15,06,17.70
2011,09,27,15,07,17.70
2011,09,27,15,08,17.60
2011,09,27,15,09,17.60
2011,09,27,15,10,17.50
2011,09,27,15,11,17.50
2011,09,27,15,12,17.40
2011,09,27,15,13,17.30
2011,09,27,15,14,17.20
2011,09,27,15,15,17.10
2011,09,27,15,16,17.00
2011,09,27,15,17,16.80
2011,09,27,15,18,16.80
2011,09,27,15,19,16.70
2011,09,27,15,20,16.70
2011,09,27,15,21,16.60
2011,09,27,15,22,16.50
2011,09,27,15,23,16.40
2011,09,27,15,24,16.40
2011,09,27,15,25,16.30
2011,09,27,15,26,16.30
2011,09,27,15,27,16.30
2011,09,27,15,28,16.20
2011,09,27,15,29,16.20
2011,09,27,15,30,16.20
2011,09,27,15,31,16.10
2011,09,27,15,32,16.10
2011,09,27,15,33,16.10
2011,09,27,15,34,16.10
2011,09,27,15,35,16.10
2011,09,27,15,36,16.10
2011,09,27,15,37,16.00
2011,09,27,15,38,15.90
2011,09,27,15,39,15.90
2011,09,27,15,40,15.80
2011,09,27,15,41,15.80
2011,09,27,15,42,15.70
2011,09,27,15,43,15.50
2011,09,27,15,44,15.40
2011,09,27,15,45,15.30
2011,09,27,15,46,15.10
2011,09,27,15,47,15.00
2011,09,27,15,48,15.00
2011,09,27,15,49,14.80
2011,09,27,15,50,14.70
2011,09,27,15,51,14.60
2011,09,27,15,52,14.60
2011,09,27,15,53,14.50
2011,09,27,15,54,14.50
2011,09,27,15,55,14.40
2011,09,27,15,56,14.40
2011,09,27,15,57,14.40
2011,09,27,15,58,14.40
2011,09,27,15,59,14.30
2011,09,27,16,00,14.30
2011,09,27,16,01,14.30
2011,09,27,16,02,14.30
2011,09,27,16,03,14.30
2011,09,27,16,04,14.30
2011,09,27,16,05,14.30
2011,09,27,16,06,14.30
2011,09,27,16,07,14.30
2011,09,27,16,08,14.30
2011,09,27,16,09,14.30
2011,09,27,16,10,14.30
2011,09,27,16,11,14.40
2011,09,27,16,12,14.40
2011,09,27,16,13,14.40
2011,09,27,16,14,14.40
2011,09,27,16,15,14.40
2011,09,27,16,16,14.40
2011,09,27,16,17,14.40
2011,09,27,16,18,14.50
2011,09,27,16,19,14.50
2011,09,27,16,20,14.50
2011,09,27,16,21,14.50
2011,09,27,16,22,14.50
2011,09,27,16,23,14.50
2011,09,27,16,24,14.60
2011,09,27,16,25,14.50
2011,09,27,16,26,14.50
2011,09,27,16,27,14.50
2011,09,27,16,28,14.50
2011,09,27,16,29,14.50
2011,09,27,16,30,14.40
2011,09,27,16,31,14.40
2011,09,27,16,32,14.40
2011,09,27,16,33,14.40
2011,09,27,16,34,14.40
2011,09,27,16,35,14.40
2011,09,27,16,36,14.40
2011,09,27,16,37,14.40
2011,09,27,16,38,14.40
2011,09,27,16,39,14.40
2011,09,27,16,40,14.40
2011,09,27,16,41,14.40
2011,09,27,16,42,14.50
2011,09,27,16,43,14.50
2011,09,27,16,44,14.60
2011,09,27,16,45,14.60
2011,09,27,16,46,14.60
2011,09,27,16,47,14.60
2011,09,27,16,48,14.60
2011,09,27,16,49,14.60
2011,09,27,16,50,14.70
2011,09,27,16,51,14.60
2011,09,27,16,52,14.60
2011,09,27,16,53,14.60
2011,09,27,16,54,14.60
2011,09,27,16,55,14.50
2011,09,27,16,56,14.50
2011,09,27,16,57,14.50
2011,09,27,16,58,14.40
2011,09,27,16,59,14.40
2011,09,27,17,00,14.40
2011,09,27,17,01,14.40
2011,09,27,17,02,14.30
2011,09,27,17,03,14.30
2011,09,27,17,04,14.30
2011,09,27,17,05,14.30
2011,09,27,17,06,14.20
2011,09,27,17,07,14.20
2011,09,27,17,08,14.20
2011,09,27,17,09,14.20
2011,09,27,17,10,14.20
2011,09,27,17,11,14.20
2011,09,27,17,12,14.20
2011,09,27,17,13,14.20
2011,09,27,17,14,14.20
2011,09,27,17,15,14.20
2011,09,27,17,16,14.30
2011,09,27,17,17,14.30
2011,09,27,17,18,14.30
2011,09,27,17,19,14.40
2011,09,27,17,20,14.50
2011,09,27,17,21,14.50
2011,09,27,17,22,14.60
2011,09,27,17,23,14.80
2011,09,27,17,24,14.90
2011,09,27,17,25,15.00
2011,09,27,17,26,15.00
2011,09,27,17,27,15.10
2011,09,27,17,28,15.20
2011,09,27,17,29,15.20
2011,09,27,17,30,15.30
2011,09,27,17,31,15.40
2011,09,27,17,32,15.50
2011,09,27,17,33,15.50
2011,09,27,17,34,15.50
2011,09,27,17,35,15.50
2011,09,27,17,36,15.50
2011,09,27,17,37,15.50
2011,09,27,17,38,15.50
2011,09,27,17,39,15.60
2011,09,27,17,40,15.60
2011,09,27,17,41,15.70
2011,09,27,17,42,15.70
2011,09,27,17,43,15.70
2011,09,27,17,44,15.70
2011,09,27,17,45,15.70
2011,09,27,17,46,15.70